Location: Saluda
(35.2377°N, 82.3468°W)
Time: 12:13:41
(UTC+00:00)

Vanguard 3 - All Passes

Search period start: 05 October 2022 00:00
Search period end: 15 October 2022 00:00
Orbit: 508 x 3257 km, 33.3° (Epoch: 05 October)

Date Brightness Start Highest point End Pass type
(mag) Time Alt. Az. Time Alt. Az. Time Alt. Az.
05 Oct - 13:14:10 10° WSW 13:17:47 46° SSE 13:22:35 10° E daylight
05 Oct - 15:24:28 10° W 15:29:07 74° S 15:37:00 10° E daylight
05 Oct - 17:35:04 10° W 17:41:22 51° SSW 17:52:29 10° SE daylight
05 Oct - 19:47:18 10° WSW 19:54:47 26° SSW 20:05:49 10° SSE daylight
06 Oct - 12:00:41 10° SSW 12:03:45 25° SSE 12:07:04 10° E daylight
06 Oct - 14:10:41 10° WSW 14:14:38 70° S 14:20:32 10° E daylight
06 Oct - 16:21:08 10° W 16:26:20 61° S 16:35:24 10° ESE daylight
06 Oct - 18:32:18 10° W 18:39:01 34° SSW 18:49:52 10° SE daylight
06 Oct - 20:48:03 10° SW 20:52:56 13° SSW 20:58:45 10° S daylight
07 Oct - 10:47:54 10° S 10:49:38 13° SSE 10:51:19 10° SE visible
07 Oct - 12:56:51 10° WSW 13:00:25 51° SSE 13:04:51 10° E daylight
07 Oct - 15:07:21 10° W 15:11:40 70° S 15:18:40 10° ESE daylight
07 Oct - 17:18:01 10° W 17:23:41 43° SSW 17:33:22 10° SE daylight
07 Oct - 19:30:44 10° WSW 19:36:54 20° SSW 19:45:26 10° SSE daylight
08 Oct - 11:43:00 10° SW 11:46:20 30° SSE 11:49:42 10° E daylight
08 Oct - 13:53:31 10° W 13:57:17 70° S 14:02:34 10° E daylight
08 Oct - 16:04:04 10° W 16:08:49 53° SSW 16:16:46 10° ESE daylight
08 Oct - 18:15:28 10° WSW 18:21:16 27° SSW 18:30:12 10° SSE daylight
09 Oct - 10:29:21 10° SSW 10:32:10 17° SSE 10:34:42 10° ESE visible
09 Oct - 12:39:30 10° WSW 12:43:05 56° S 12:47:11 10° E daylight
09 Oct - 14:50:14 10° W 14:54:16 64° S 15:00:27 10° ESE daylight
09 Oct - 17:01:02 10° W 17:06:06 34° SSW 17:14:16 10° SE daylight
09 Oct - 19:14:47 10° SW 19:19:06 14° SSW 19:24:33 10° S daylight
10 Oct - 09:17:17 10° SSE 09:17:44 10° SSE 09:18:09 10° SSE visible
10 Oct - 11:25:17 10° SW 11:28:58 36° SSE 11:32:23 10° E daylight
10 Oct - 13:36:18 10° W 13:39:58 69° S 13:44:43 10° E daylight
10 Oct - 15:47:00 10° W 15:51:20 44° SSW 15:58:11 10° SE daylight
10 Oct - 17:58:51 10° WSW 18:03:38 20° SSW 18:10:23 10° SSE daylight
11 Oct - 10:11:00 10° SSW 10:14:46 23° SSE 10:17:50 10° ESE visible
11 Oct - 12:22:04 10° WSW 12:25:46 61° S 12:29:38 10° E daylight
11 Oct - 14:33:05 10° W 14:36:54 57° S 14:42:20 10° ESE daylight
11 Oct - 16:44:10 10° WSW 16:48:34 27° SSW 16:55:10 10° SE daylight
12 Oct - 08:56:57 10° SSW 09:00:16 15° SSE 09:02:58 10° ESE visible
12 Oct - 11:07:30 10° WSW 11:11:37 43° SSE 11:15:07 10° E visible
12 Oct - 13:19:01 10° W 13:22:38 67° S 13:26:58 10° E daylight
12 Oct - 15:29:58 10° W 15:33:54 35° SSW 15:39:41 10° SE daylight
12 Oct - 17:42:44 10° SW 17:46:03 14° SSW 17:50:13 10° S daylight
13 Oct - 07:44:44 10° SSE 07:45:27 10° SSE 07:46:07 10° SSE visible
13 Oct - 09:52:40 10° SW 09:57:21 30° SSE 10:00:51 10° E visible
13 Oct - 12:04:35 10° WSW 12:08:28 65° S 12:12:10 10° E daylight
13 Oct - 14:15:54 10° W 14:19:32 48° SSW 14:24:19 10° ESE daylight
13 Oct - 16:27:28 10° WSW 16:31:05 20° SSW 16:36:01 10° SSE daylight
14 Oct - 08:37:47 10° SSW 08:42:48 22° SSE 08:46:28 10° ESE visible
14 Oct - 10:49:38 10° WSW 10:54:17 51° S 10:57:52 10° E visible
14 Oct - 13:01:40 10° W 13:05:19 62° S 13:09:18 10° ESE daylight
14 Oct - 15:12:59 10° WSW 15:16:28 27° SSW 15:21:12 10° SE daylight
